星链-5303 (STARLINK-5303 )

导读 | 豆包AI

STARLINK-5303是美国太空探索技术公司(SpaceX)于2023年2月17日发射的星链(Starlink)卫星,属于第二代星链(Gen2)星座组网的一部分,加入SpaceX构建的全球低轨互联网卫星系统。星链项目计划在近地轨道部署数万颗卫星,提供全球高速低延迟宽带服务,尤其覆盖偏远区域,STARLINK-5303将服务于海事、航空及应急通信等多元场景。

基本信息
目录编号:
55630
目录名称:
STARLINK-5303
国际标识:
2023-021C
轨道中心:
EARTH
卫星名称:
星链-5303
卫星全名:
星链-5303 (STARLINK-5303 )
卫星状态:
在轨 (已飞行1122 天)
发射日期:
2023-02-17 UTC
国别 :
美国 (US)
星等 :
--
轨道信息
数据来源 国际轨道数据
星历时间: 2026-03-15T01:49:45+0800
22小时前
查看轨道信息
半长轴: 6950.231km
偏心率: 0.000326
轨道倾角: 70.001°
近地点辐角 270.054°
升交点赤经 191.775°
平近点角 90.025°
近地点: 569.828km
远地点: 574.36km
周期: 96.108分钟
每日圈数: 14.983177
详细信息
固有亮度:
5
最大亮度:
2.5
卫星平台:
Starlink v1.5
覆盖范围:
全球
运营商:
太空探索技术公司
运营商所在国:
美国
制造商(研发单位):
太空探索技术公司
制造商所在国:
美国
使用方式:
暂无
卫星简介
星链(Starlink)计划是由太空探索技术公司(SpaceX)提出的一个巨型低轨卫星互联网星座项目,计划在2019年至2024年间在太空搭建由约1.2万颗卫星组成的“星链”网络,其中1584颗将部署在地球上空550千米处的近地轨道,并从2020年开始工作。该卫星仍在工作。
2D轨道图
3D轨道图
轨道高度分析图
轨道倾角分析图
轨道综合分析图
查看轨道综合分析图